Volver al catálogo

STARLINK-4080

ActivoComunicacionesVLEO
NORAD 52835·PAYLOAD·🇺🇸 United States

Lanzado Jun 17, 2022 desde Cape Canaveral Space Force Station

Loading…

Próximos Pases (próximas 24 horas)

TLE

ActualizadoSource: CelesTrak SupGP

Época: Sep 15, 2026, 01:17 UTC

1 52835C 22062F   26258.05395833 -.00038996  00000+0 -12536-2 0  2587
2 52835  53.1585 254.1688 0001293  91.2152 238.3542 15.31731231    16

Sigue STARLINK-4080 en tiempo real con AllMySat

Download on the App Store